QPF
0.01 0.01 0.01 0.01 0.04 0.05 0.04 0.03 0.03 0.05 0.04 0.02 0.01 0.02 0.02 0.02 0.02 0.03 0.02 0.01 0.01 0.03 0.05 0.06 0.07 0.08 0.11 0.18 0.08 0.04 0.05 0.06 0.07 0.08 0.08 0.06 0.05 0.05 0.07 0.09 0.11 0.10 0.10 0.11 0.12 0.12 0.12 0.12 0.11
0.00 0.00 0.01 0.01 0.03 0.05 0.03 0.02 0.02 0.03 0.03 0.03 0.01 0.01 0.01 0.01 0.01 0.01 0.01 0.01 0.02 0.02 0.04 0.05 0.07 0.08 0.11 0.09 0.05 0.06 0.06 0.08 0.09 0.09 0.08 0.06 0.05 0.06 0.08 0.09 0.10 0.09 0.08 0.07 0.08 0.10 0.12 0.11 0.10
0.00 0.01 0.01 0.01 0.03 0.05 0.04 0.02 0.02 0.02 0.02 0.01 0.01 0.00 0.01 0.01 0.01 0.01 0.01 0.02 0.02 0.02 0.03 0.05 0.07 0.06 0.05 0.06 0.05 0.05 0.07 0.08 0.09 0.08 0.07 0.07 0.06 0.05 0.06 0.07 0.08 0.09 0.07 0.06 0.06 0.09 0.10 0.11 0.14
0.01 0.01 0.01 0.02 0.03 0.03 0.03 0.02 0.01 0.01 0.02 0.01 0.00 0.00 0.00 0.01 0.02 0.01 0.00 0.02 0.02 0.02 0.03 0.06 0.07 0.05 0.05 0.06 0.05 0.04 0.06 0.07 0.07 0.06 0.06 0.08 0.08 0.07 0.06 0.06 0.06 0.06 0.07 0.08 0.08 0.08 0.09 0.09 0.11
0.01 0.01 0.01 0.03 0.03 0.02 0.01 0.01 0.02 0.02 0.02 0.01 0.00 0.00 0.01 0.01 0.01 0.01 0.00 0.01 0.01 0.03 0.04 0.05 0.06 0.05 0.06 0.06 0.05 0.04 0.05 0.07 0.06 0.06 0.06 0.06 0.07 0.07 0.07 0.06 0.05 0.06 0.06 0.07 0.07 0.06 0.06 0.05 0.06
0.01 0.01 0.02 0.03 0.03 0.02 0.00 0.01 0.02 0.02 0.01 0.01 0.01 0.00 0.02 0.02 0.01 0.01 0.00 0.00 0.01 0.02 0.04 0.06 0.07 0.06 0.05 0.05 0.05 0.05 0.05 0.07 0.06 0.07 0.07 0.06 0.06 0.07 0.07 0.06 0.05 0.07 0.06 0.06 0.06 0.05 0.04 0.05 0.05
0.00 0.01 0.01 0.02 0.02 0.01 0.00 0.00 0.01 0.01 0.02 0.02 0.01 0.01 0.02 0.02 0.02 0.01 0.01 0.01 0.01 0.02 0.03 0.06 0.08 0.08 0.07 0.06 0.07 0.07 0.07 0.08 0.07 0.07 0.07 0.07 0.06 0.06 0.06 0.06 0.05 0.06 0.07 0.08 0.07 0.06 0.08 0.07 0.06
0.00 0.01 0.01 0.01 0.01 0.01 0.01 0.00 0.01 0.01 0.01 0.01 0.01 0.01 0.01 0.01 0.02 0.01 0.01 0.01 0.01 0.01 0.01 0.03 0.07 0.08 0.08 0.10 0.11 0.09 0.10 0.09 0.08 0.07 0.07 0.07 0.07 0.06 0.05 0.04 0.04 0.05 0.07 0.07 0.07 0.06 0.07 0.09 0.11
0.00 0.01 0.01 0.01 0.01 0.01 0.01 0.01 0.00 0.00 0.00 0.00 0.01 0.01 0.01 0.01 0.01 0.02 0.02 0.00 0.00 0.01 0.01 0.02 0.03 0.04 0.07 0.07 0.07 0.10 0.09 0.07 0.07 0.07 0.07 0.06 0.05 0.06 0.06 0.05 0.05 0.08 0.08 0.06 0.05 0.06 0.06 0.07 0.10
0.00 0.01 0.01 0.00 0.00 0.00 0.00 0.00 0.00 0.00 0.00 0.00 0.00 0.00 0.00 0.01 0.01 0.01 0.01 0.01 0.00 0.00 0.01 0.01 0.02 0.03 0.05 0.06 0.07 0.11 0.08 0.05 0.05 0.06 0.07 0.07 0.06 0.05 0.05 0.06 0.05 0.07 0.06 0.05 0.05 0.06 0.06 0.06 0.06
0.01 0.01 0.01 0.00 0.00 0.00 0.00 0.00 0.00 0.00 0.00 0.00 0.00 0.00 0.00 0.00 0.00 0.01 0.01 0.01 0.00 0.00 0.00 0.01 0.01 0.02 0.03 0.04 0.05 0.08 0.07 0.05 0.04 0.05 0.05 0.06 0.05 0.06 0.06 0.05 0.05 0.06 0.07 0.06 0.06 0.06 0.05 0.05 0.05
0.01 0.02 0.00 0.00 0.00 0.00 0.00 0.00 0.00 0.00 0.00 0.00 0.00 0.00 0.00 0.00 0.01 0.01 0.00 0.00 0.01 0.01 0.01 0.02 0.02 0.02 0.02 0.03 0.03 0.04 0.04 0.04 0.04 0.04 0.04 0.04 0.04 0.05 0.05 0.04 0.05 0.06 0.05 0.05 0.06 0.07 0.05 0.05 0.06
0.00 0.01 0.01 0.00 0.00 0.00 0.00 0.00 0.00 0.00 0.00 0.00 0.00 0.00 0.00 0.00 0.00 0.01 0.01 0.00 0.01 0.01 0.01 0.02 0.02 0.03 0.02 0.03 0.03 0.03 0.03 0.03 0.04 0.04 0.04 0.04 0.04 0.05 0.04 0.03 0.05 0.05 0.05 0.05 0.06 0.06 0.06 0.06 0.06
0.02 0.01 0.01 0.00 0.00 0.00 0.00 0.00 0.00 0.00 0.00 0.00 0.00 0.00 0.00 0.00 0.00 0.00 0.01 0.01 0.02 0.02 0.01 0.01 0.02 0.02 0.03 0.03 0.03 0.03 0.03 0.03 0.05 0.06 0.05 0.04 0.04 0.04 0.04 0.04 0.04 0.04 0.05 0.05 0.05 0.04 0.05 0.05 0.05
0.01 0.00 0.00 0.00 0.00 0.00 0.00 0.00 0.00 0.00 0.00 0.00 0.00 0.00 0.01 0.01 0.00 0.00 0.01 0.02 0.02 0.03 0.02 0.02 0.02 0.02 0.03 0.03 0.02 0.03 0.03 0.03 0.05 0.07 0.06 0.05 0.04 0.04 0.04 0.04 0.04 0.04 0.05 0.05 0.06 0.06 0.07 0.08 0.09
0.01 0.00 0.01 0.00 0.00 0.00 0.00 0.01 0.00 0.00 0.00 0.00 0.00 0.00 0.00 0.01 0.02 0.01 0.00 0.01 0.01 0.02 0.02 0.01 0.01 0.03 0.04 0.04 0.04 0.03 0.02 0.03 0.04 0.05 0.05 0.03 0.04 0.04 0.05 0.05 0.04 0.04 0.04 0.04 0.05 0.06 0.07 0.10 0.13
0.00 0.01 0.01 0.00 0.00 0.00 0.00 0.01 0.00 0.00 0.00 0.00 0.00 0.00 0.00 0.01 0.01 0.02 0.00 0.00 0.01 0.01 0.02 0.02 0.02 0.04 0.06 0.06 0.04 0.04 0.04 0.04 0.03 0.03 0.03 0.03 0.03 0.03 0.04 0.06 0.04 0.03 0.03 0.03 0.03 0.04 0.05 0.07 0.09
0.00 0.00 0.00 0.00 0.00 0.00 0.00 0.00 0.00 0.00 0.00 0.00 0.01 0.00 0.00 0.01 0.01 0.01 0.00 0.00 0.01 0.01 0.03 0.03 0.02 0.03 0.05 0.06 0.05 0.05 0.04 0.04 0.04 0.03 0.04 0.03 0.03 0.03 0.04 0.05 0.04 0.04 0.04 0.04 0.04 0.05 0.06 0.06 0.06
0.00 0.00 0.00 0.00 0.00 0.00 0.00 0.01 0.01 0.00 0.00 0.01 0.01 0.01 0.01 0.01 0.01 0.00 0.00 0.00 0.01 0.01 0.02 0.03 0.03 0.04 0.05 0.04 0.04 0.04 0.04 0.04 0.05 0.04 0.03 0.02 0.02 0.02 0.03 0.02 0.03 0.04 0.05 0.04 0.04 0.05 0.05 0.05 0.06
0.00 0.00 0.01 0.01 0.01 0.00 0.00 0.01 0.01 0.01 0.00 0.00 0.01 0.01 0.01 0.01 0.01 0.01 0.01 0.00 0.01 0.02 0.03 0.04 0.05 0.06 0.05 0.04 0.04 0.04 0.03 0.04 0.04 0.02 0.02 0.03 0.02 0.02 0.03 0.03 0.03 0.04 0.05 0.04 0.05 0.05 0.05 0.06 0.07
0.00 0.00 0.01 0.01 0.01 0.01 0.01 0.01 0.01 0.01 0.00 0.00 0.00 0.01 0.01 0.01 0.02 0.01 0.01 0.01 0.02 0.03 0.03 0.05 0.08 0.08 0.05 0.04 0.03 0.03 0.04 0.05 0.04 0.04 0.03 0.03 0.02 0.02 0.03 0.03 0.03 0.05 0.06 0.04 0.05 0.06 0.06 0.06 0.05
0.02 0.00 0.00 0.00 0.01 0.01 0.01 0.01 0.01 0.01 0.00 0.00 0.00 0.01 0.02 0.02 0.02 0.02 0.01 0.02 0.04 0.04 0.04 0.07 0.09 0.08 0.07 0.04 0.03 0.04 0.04 0.05 0.05 0.04 0.03 0.03 0.02 0.02 0.02 0.02 0.03 0.05 0.05 0.04 0.03 0.04 0.05 0.06 0.05
0.01 0.00 0.00 0.00 0.01 0.01 0.01 0.01 0.01 0.01 0.00 0.00 0.00 0.01 0.01 0.01 0.02 0.02 0.01 0.02 0.02 0.03 0.04 0.05 0.06 0.05 0.04 0.04 0.04 0.04 0.03 0.05 0.04 0.03 0.03 0.04 0.03 0.02 0.02 0.02 0.02 0.04 0.04 0.04 0.03 0.04 0.05 0.05 0.06
0.01 0.01 0.01 0.01 0.01 0.01 0.01 0.01 0.00 0.00 0.00 0.00 0.00 0.00 0.00 0.00 0.01 0.01 0.01 0.02 0.02 0.02 0.02 0.03 0.05 0.06 0.04 0.04 0.04 0.04 0.04 0.05 0.04 0.04 0.04 0.04 0.03 0.02 0.02 0.02 0.03 0.04 0.04 0.03 0.03 0.04 0.05 0.06 0.06
0.02 0.03 0.03 0.02 0.02 0.01 0.00 0.01 0.00 0.00 0.00 0.00 0.00 0.00 0.00 0.00 0.01 0.01 0.01 0.01 0.01 0.01 0.01 0.02 0.03 0.04 0.04 0.04 0.04 0.04 0.04 0.06 0.07 0.06 0.04 0.04 0.03 0.02 0.02 0.03 0.03 0.03 0.03 0.02 0.02 0.04 0.05 0.06 0.07
0.01 0.02 0.03 0.02 0.01 0.01 0.01 0.01 0.00 0.00 0.00 0.00 0.00 0.00 0.00 0.00 0.01 0.01 0.01 0.00 0.01 0.01 0.01 0.02 0.03 0.02 0.03 0.03 0.04 0.06 0.06 0.06 0.06 0.05 0.04 0.03 0.02 0.02 0.01 0.02 0.03 0.04 0.05 0.03 0.04 0.04 0.04 0.05 0.07
0.00 0.01 0.01 0.01 0.01 0.01 0.01 0.00 0.00 0.00 0.00 0.00 0.01 0.01 0.00 0.01 0.01 0.01 0.01 0.00 0.01 0.01 0.01 0.01 0.02 0.03 0.04 0.04 0.05 0.06 0.06 0.05 0.05 0.04 0.03 0.02 0.01 0.01 0.01 0.01 0.01 0.02 0.02 0.03 0.04 0.04 0.06 0.07 0.07
0.01 0.01 0.01 0.02 0.02 0.01 0.00 0.00 0.01 0.00 0.00 0.01 0.01 0.00 0.00 0.00 0.00 0.01 0.01 0.01 0.00 0.00 0.00 0.01 0.03 0.04 0.04 0.05 0.06 0.05 0.04 0.04 0.04 0.04 0.02 0.01 0.01 0.01 0.02 0.01 0.01 0.01 0.02 0.02 0.03 0.04 0.05 0.05 0.06
0.01 0.01 0.01 0.01 0.01 0.02 0.01 0.01 0.01 0.01 0.01 0.01 0.00 0.01 0.01 0.00 0.00 0.01 0.01 0.01 0.00 0.00 0.01 0.01 0.01 0.03 0.03 0.03 0.02 0.02 0.03 0.04 0.04 0.03 0.02 0.01 0.01 0.01 0.01 0.01 0.01 0.01 0.01 0.02 0.03 0.03 0.04 0.05 0.06
0.01 0.01 0.01 0.02 0.01 0.01 0.01 0.01 0.01 0.01 0.01 0.00 0.01 0.01 0.01 0.00 0.01 0.01 0.02 0.01 0.01 0.02 0.02 0.02 0.01 0.01 0.01 0.01 0.01 0.03 0.03 0.04 0.04 0.02 0.02 0.01 0.01 0.01 0.02 0.02 0.01 0.01 0.01 0.02 0.02 0.02 0.03 0.04 0.05
MSLP
1007.58 1008.05 1008.49 1008.81 1008.91 1008.75 1008.37 1007.82 1007.22 1006.70 1006.34 1006.19 1006.24 1006.43 1006.68 1006.88 1006.95 1006.87 1006.67 1006.41 1006.18 1006.08 1006.15 1006.41 1006.80 1007.27 1007.72 1008.08 1008.32 1008.44 1008.49 1008.53 1008.64 1008.83 1009.14 1009.51 1009.91 1010.26 1010.53 1010.68 1010.73 1010.74 1010.74 1010.80 1010.93 1011.14 1011.39 1011.64 1011.83
1007.62 1008.12 1008.56 1008.83 1008.86 1008.62 1008.14 1007.50 1006.83 1006.26 1005.87 1005.71 1005.76 1005.96 1006.21 1006.41 1006.49 1006.44 1006.27 1006.07 1005.92 1005.90 1006.06 1006.40 1006.88 1007.41 1007.90 1008.29 1008.55 1008.69 1008.75 1008.81 1008.93 1009.15 1009.46 1009.83 1010.20 1010.52 1010.75 1010.87 1010.91 1010.92 1010.95 1011.05 1011.24 1011.50 1011.80 1012.08 1012.29
1007.74 1008.23 1008.64 1008.85 1008.79 1008.46 1007.89 1007.19 1006.47 1005.87 1005.47 1005.30 1005.35 1005.55 1005.79 1005.98 1006.06 1006.02 1005.88 1005.72 1005.64 1005.71 1005.97 1006.40 1006.96 1007.55 1008.09 1008.52 1008.81 1008.97 1009.05 1009.12 1009.25 1009.47 1009.77 1010.13 1010.48 1010.77 1010.98 1011.08 1011.12 1011.15 1011.22 1011.37 1011.62 1011.93 1012.26 1012.55 1012.74
1007.93 1008.40 1008.74 1008.86 1008.71 1008.29 1007.66 1006.91 1006.18 1005.58 1005.18 1005.03 1005.09 1005.27 1005.50 1005.67 1005.74 1005.69 1005.57 1005.46 1005.44 1005.58 1005.91 1006.42 1007.05 1007.70 1008.29 1008.75 1009.06 1009.24 1009.34 1009.42 1009.56 1009.78 1010.07 1010.41 1010.74 1011.02 1011.21 1011.32 1011.38 1011.44 1011.56 1011.76 1012.05 1012.39 1012.73 1013.00 1013.15
1008.20 1008.60 1008.85 1008.88 1008.64 1008.14 1007.47 1006.71 1005.98 1005.41 1005.05 1004.92 1004.99 1005.17 1005.38 1005.53 1005.58 1005.53 1005.42 1005.34 1005.36 1005.56 1005.95 1006.51 1007.17 1007.86 1008.47 1008.95 1009.27 1009.47 1009.58 1009.68 1009.83 1010.04 1010.33 1010.66 1010.98 1011.25 1011.44 1011.57 1011.66 1011.77 1011.93 1012.17 1012.48 1012.83 1013.15 1013.39 1013.49
1008.49 1008.80 1008.96 1008.88 1008.56 1008.02 1007.32 1006.58 1005.90 1005.39 1005.08 1005.00 1005.08 1005.27 1005.46 1005.59 1005.62 1005.55 1005.45 1005.38 1005.43 1005.66 1006.07 1006.64 1007.32 1008.00 1008.60 1009.08 1009.41 1009.61 1009.74 1009.86 1010.01 1010.24 1010.53 1010.85 1011.17 1011.45 1011.66 1011.81 1011.94 1012.08 1012.28 1012.54 1012.86 1013.19 1013.47 1013.66 1013.70
1008.74 1008.96 1009.01 1008.85 1008.47 1007.91 1007.23 1006.54 1005.94 1005.50 1005.27 1005.24 1005.35 1005.54 1005.72 1005.83 1005.84 1005.76 1005.66 1005.59 1005.65 1005.87 1006.27 1006.83 1007.47 1008.11 1008.68 1009.13 1009.45 1009.65 1009.79 1009.93 1010.10 1010.34 1010.65 1010.98 1011.31 1011.60 1011.83 1012.01 1012.16 1012.33 1012.55 1012.81 1013.12 1013.41 1013.65 1013.78 1013.77
1008.89 1009.02 1008.98 1008.76 1008.35 1007.80 1007.18 1006.58 1006.07 1005.73 1005.58 1005.60 1005.74 1005.93 1006.10 1006.19 1006.18 1006.10 1005.99 1005.92 1005.97 1006.16 1006.53 1007.03 1007.60 1008.18 1008.69 1009.10 1009.39 1009.59 1009.74 1009.90 1010.10 1010.37 1010.69 1011.04 1011.38 1011.68 1011.93 1012.12 1012.30 1012.48 1012.70 1012.95 1013.23 1013.48 1013.67 1013.75 1013.69
1008.91 1008.96 1008.86 1008.59 1008.19 1007.69 1007.16 1006.67 1006.27 1006.04 1005.96 1006.03 1006.19 1006.38 1006.53 1006.61 1006.59 1006.49 1006.38 1006.31 1006.34 1006.50 1006.81 1007.23 1007.72 1008.21 1008.65 1009.00 1009.26 1009.45 1009.62 1009.80 1010.03 1010.33 1010.67 1011.04 1011.39 1011.70 1011.95 1012.16 1012.34 1012.52 1012.73 1012.96 1013.20 1013.42 1013.56 1013.59 1013.51
1008.80 1008.78 1008.63 1008.37 1008.00 1007.58 1007.16 1006.79 1006.51 1006.38 1006.37 1006.48 1006.64 1006.82 1006.95 1007.00 1006.97 1006.88 1006.77 1006.69 1006.70 1006.83 1007.08 1007.43 1007.82 1008.22 1008.58 1008.86 1009.09 1009.27 1009.45 1009.66 1009.92 1010.24 1010.61 1010.99 1011.34 1011.65 1011.91 1012.11 1012.29 1012.46 1012.65 1012.86 1013.07 1013.25 1013.35 1013.36 1013.26
1008.59 1008.53 1008.36 1008.11 1007.81 1007.48 1007.18 1006.93 1006.77 1006.72 1006.77 1006.89 1007.04 1007.18 1007.28 1007.31 1007.27 1007.18 1007.08 1007.02 1007.03 1007.13 1007.33 1007.60 1007.92 1008.23 1008.51 1008.75 1008.94 1009.11 1009.29 1009.52 1009.80 1010.14 1010.51 1010.90 1011.25 1011.56 1011.81 1012.00 1012.17 1012.34 1012.51 1012.70 1012.89 1013.04 1013.12 1013.11 1013.01
1008.36 1008.27 1008.10 1007.88 1007.65 1007.43 1007.24 1007.11 1007.04 1007.05 1007.12 1007.23 1007.35 1007.45 1007.51 1007.51 1007.46 1007.37 1007.29 1007.25 1007.27 1007.37 1007.54 1007.77 1008.02 1008.27 1008.49 1008.67 1008.83 1008.99 1009.17 1009.40 1009.69 1010.03 1010.40 1010.78 1011.12 1011.42 1011.66 1011.86 1012.02 1012.18 1012.35 1012.53 1012.70 1012.83 1012.91 1012.89 1012.78
1008.19 1008.07 1007.91 1007.74 1007.58 1007.45 1007.37 1007.33 1007.33 1007.37 1007.43 1007.51 1007.57 1007.61 1007.62 1007.58 1007.52 1007.45 1007.39 1007.38 1007.42 1007.53 1007.70 1007.91 1008.13 1008.33 1008.51 1008.66 1008.79 1008.93 1009.10 1009.32 1009.59 1009.92 1010.27 1010.63 1010.96 1011.25 1011.49 1011.68 1011.85 1012.02 1012.19 1012.36 1012.53 1012.66 1012.73 1012.71 1012.60
1008.13 1008.00 1007.86 1007.73 1007.64 1007.60 1007.59 1007.61 1007.65 1007.70 1007.73 1007.74 1007.73 1007.70 1007.63 1007.56 1007.48 1007.41 1007.39 1007.41 1007.49 1007.63 1007.82 1008.02 1008.23 1008.42 1008.57 1008.70 1008.81 1008.93 1009.07 1009.26 1009.51 1009.80 1010.13 1010.46 1010.77 1011.05 1011.29 1011.49 1011.67 1011.86 1012.04 1012.23 1012.40 1012.54 1012.61 1012.59 1012.47
1008.22 1008.09 1007.96 1007.88 1007.85 1007.87 1007.92 1007.98 1008.03 1008.06 1008.03 1007.98 1007.88 1007.75 1007.62 1007.49 1007.39 1007.33 1007.32 1007.38 1007.50 1007.67 1007.88 1008.11 1008.32 1008.51 1008.66 1008.78 1008.87 1008.96 1009.08 1009.23 1009.43 1009.68 1009.96 1010.25 1010.54 1010.81 1011.06 1011.28 1011.49 1011.69 1011.90 1012.10 1012.29 1012.44 1012.51 1012.50 1012.38
1008.43 1008.29 1008.20 1008.16 1008.19 1008.27 1008.36 1008.44 1008.49 1008.47 1008.38 1008.24 1008.05 1007.84 1007.63 1007.45 1007.32 1007.25 1007.25 1007.33 1007.47 1007.67 1007.91 1008.16 1008.39 1008.59 1008.74 1008.86 1008.94 1009.01 1009.09 1009.20 1009.35 1009.54 1009.78 1010.03 1010.30 1010.56 1010.81 1011.05 1011.28 1011.51 1011.74 1011.97 1012.17 1012.33 1012.41 1012.40 1012.29
1008.68 1008.57 1008.51 1008.54 1008.63 1008.75 1008.88 1008.98 1009.00 1008.93 1008.78 1008.56 1008.28 1007.99 1007.71 1007.48 1007.31 1007.22 1007.21 1007.29 1007.44 1007.66 1007.91 1008.17 1008.42 1008.63 1008.80 1008.92 1009.01 1009.06 1009.11 1009.18 1009.28 1009.41 1009.59 1009.80 1010.04 1010.29 1010.54 1010.80 1011.05 1011.30 1011.55 1011.79 1012.00 1012.17 1012.27 1012.27 1012.18
1008.91 1008.84 1008.85 1008.94 1009.10 1009.28 1009.45 1009.55 1009.55 1009.44 1009.23 1008.94 1008.59 1008.23 1007.89 1007.60 1007.39 1007.27 1007.24 1007.30 1007.44 1007.64 1007.89 1008.15 1008.41 1008.64 1008.82 1008.96 1009.05 1009.10 1009.13 1009.16 1009.22 1009.30 1009.43 1009.60 1009.80 1010.03 1010.28 1010.54 1010.80 1011.06 1011.31 1011.55 1011.77 1011.94 1012.05 1012.08 1012.01
1009.04 1009.04 1009.14 1009.32 1009.56 1009.81 1010.01 1010.12 1010.11 1009.97 1009.71 1009.36 1008.95 1008.54 1008.16 1007.83 1007.58 1007.42 1007.35 1007.37 1007.48 1007.64 1007.86 1008.11 1008.36 1008.60 1008.81 1008.96 1009.07 1009.13 1009.16 1009.17 1009.19 1009.23 1009.31 1009.43 1009.60 1009.80 1010.03 1010.27 1010.52 1010.77 1011.02 1011.25 1011.46 1011.63 1011.75 1011.81 1011.78
1009.05 1009.14 1009.34 1009.63 1009.97 1010.29 1010.54 1010.66 1010.64 1010.47 1010.17 1009.78 1009.34 1008.89 1008.48 1008.13 1007.85 1007.65 1007.54 1007.51 1007.56 1007.68 1007.85 1008.07 1008.30 1008.54 1008.76 1008.94 1009.07 1009.15 1009.19 1009.20 1009.20 1009.21 1009.24 1009.32 1009.44 1009.60 1009.79 1010.01 1010.23 1010.45 1010.67 1010.87 1011.06 1011.22 1011.34 1011.43 1011.45
1008.94 1009.14 1009.46 1009.88 1010.31 1010.71 1010.99 1011.13 1011.10 1010.90 1010.57 1010.16 1009.70 1009.24 1008.82 1008.46 1008.16 1007.94 1007.79 1007.71 1007.70 1007.75 1007.86 1008.03 1008.24 1008.47 1008.70 1008.90 1009.07 1009.17 1009.23 1009.25 1009.24 1009.22 1009.22 1009.25 1009.32 1009.43 1009.57 1009.74 1009.91 1010.08 1010.25 1010.41 1010.56 1010.70 1010.83 1010.93 1010.99
1008.75 1009.07 1009.53 1010.06 1010.59 1011.05 1011.37 1011.51 1011.46 1011.24 1010.88 1010.45 1009.98 1009.53 1009.13 1008.78 1008.49 1008.26 1008.08 1007.96 1007.88 1007.87 1007.92 1008.03 1008.19 1008.40 1008.63 1008.85 1009.05 1009.19 1009.27 1009.30 1009.28 1009.25 1009.22 1009.20 1009.22 1009.27 1009.35 1009.45 1009.56 1009.67 1009.78 1009.88 1009.98 1010.08 1010.18 1010.29 1010.39
1008.56 1009.00 1009.58 1010.21 1010.82 1011.32 1011.65 1011.78 1011.71 1011.46 1011.08 1010.63 1010.18 1009.75 1009.38 1009.06 1008.80 1008.59 1008.40 1008.24 1008.12 1008.04 1008.02 1008.07 1008.19 1008.37 1008.59 1008.81 1009.02 1009.19 1009.29 1009.34 1009.32 1009.27 1009.20 1009.14 1009.10 1009.08 1009.10 1009.13 1009.17 1009.21 1009.25 1009.29 1009.32 1009.37 1009.43 1009.52 1009.62
1008.41 1008.96 1009.64 1010.35 1011.00 1011.52 1011.84 1011.94 1011.83 1011.54 1011.15 1010.71 1010.27 1009.89 1009.57 1009.31 1009.10 1008.91 1008.73 1008.56 1008.40 1008.27 1008.19 1008.18 1008.24 1008.38 1008.57 1008.79 1009.01 1009.18 1009.30 1009.34 1009.32 1009.25 1009.15 1009.04 1008.94 1008.86 1008.81 1008.77 1008.75 1008.72 1008.69 1008.65 1008.62 1008.59 1008.60 1008.63 1008.71
1008.33 1008.96 1009.71 1010.46 1011.13 1011.63 1011.92 1011.98 1011.83 1011.51 1011.10 1010.68 1010.28 1009.95 1009.71 1009.52 1009.38 1009.24 1009.10 1008.93 1008.76 1008.59 1008.45 1008.38 1008.38 1008.47 1008.62 1008.82 1009.01 1009.18 1009.29 1009.32 1009.29 1009.19 1009.05 1008.90 1008.75 1008.61 1008.50 1008.40 1008.31 1008.22 1008.12 1008.01 1007.90 1007.80 1007.72 1007.69 1007.70
1008.30 1008.99 1009.76 1010.52 1011.17 1011.63 1011.87 1011.88 1011.68 1011.35 1010.95 1010.56 1010.22 1009.97 1009.82 1009.72 1009.66 1009.60 1009.50 1009.36 1009.18 1008.98 1008.80 1008.67 1008.62 1008.65 1008.75 1008.90 1009.06 1009.20 1009.29 1009.30 1009.24 1009.11 1008.94 1008.74 1008.54 1008.36 1008.20 1008.05 1007.91 1007.77 1007.60 1007.43 1007.24 1007.05 1006.88 1006.75 1006.67
1008.29 1009.00 1009.76 1010.48 1011.07 1011.48 1011.65 1011.61 1011.39 1011.06 1010.69 1010.36 1010.11 1009.96 1009.91 1009.93 1009.96 1009.98 1009.94 1009.83 1009.66 1009.45 1009.24 1009.06 1008.95 1008.92 1008.97 1009.07 1009.18 1009.28 1009.33 1009.31 1009.22 1009.05 1008.84 1008.61 1008.38 1008.15 1007.95 1007.77 1007.59 1007.40 1007.19 1006.95 1006.69 1006.42 1006.15 1005.91 1005.71
1008.25 1008.94 1009.65 1010.30 1010.81 1011.14 1011.25 1011.17 1010.94 1010.64 1010.34 1010.09 1009.95 1009.92 1009.99 1010.12 1010.27 1010.36 1010.39 1010.32 1010.17 1009.96 1009.73 1009.52 1009.37 1009.29 1009.27 1009.32 1009.38 1009.43 1009.44 1009.38 1009.25 1009.05 1008.81 1008.55 1008.29 1008.04 1007.82 1007.61 1007.40 1007.18 1006.93 1006.64 1006.31 1005.96 1005.59 1005.23 1004.92
1008.14 1008.78 1009.40 1009.95 1010.36 1010.59 1010.65 1010.54 1010.34 1010.09 1009.88 1009.75 1009.73 1009.84 1010.04 1010.29 1010.53 1010.71 1010.79 1010.77 1010.65 1010.45 1010.22 1009.99 1009.81 1009.69 1009.64 1009.63 1009.65 1009.66 1009.62 1009.53 1009.37 1009.14 1008.88 1008.60 1008.31 1008.05 1007.81 1007.59 1007.36 1007.12 1006.84 1006.51 1006.13 1005.70 1005.24 1004.78 1004.34
1007.98 1008.52 1009.04 1009.46 1009.75 1009.88 1009.88 1009.76 1009.59 1009.42 1009.31 1009.31 1009.44 1009.68 1010.01 1010.36 1010.70 1010.95 1011.10 1011.12 1011.03 1010.85 1010.63 1010.41 1010.22 1010.09 1010.01 1009.97 1009.96 1009.93 1009.86 1009.74 1009.55 1009.30 1009.03 1008.73 1008.44 1008.17 1007.92 1007.68 1007.44 1007.18 1006.88 1006.52 1006.09 1005.60 1005.08 1004.53 1004.00
Thickness
5811 5814 5814 5807 5800 5796 5792 5801 5809 5808 5809 5815 5816 5812 5807 5801 5795 5786 5805 5813 5811 5809 5804 5798 5795 5795 5794 5791 5790 5789 5788 5787 5786 5785 5784 5783 5783 5782 5781 5779 5778 5777 5776 5775 5774 5773 5772 5771 5770
5819 5817 5811 5807 5799 5790 5793 5806 5807 5809 5814 5819 5817 5813 5808 5803 5808 5806 5808 5810 5811 5809 5805 5799 5794 5794 5792 5791 5789 5789 5787 5786 5785 5784 5783 5782 5782 5781 5780 5778 5777 5776 5776 5775 5774 5773 5772 5771 5770
5821 5819 5811 5808 5799 5794 5796 5810 5811 5816 5821 5818 5813 5814 5808 5802 5807 5808 5811 5812 5811 5809 5805 5798 5793 5792 5791 5790 5789 5787 5786 5785 5784 5783 5782 5781 5781 5780 5779 5778 5777 5776 5775 5774 5773 5772 5772 5771 5770
5822 5817 5814 5806 5800 5807 5810 5816 5818 5816 5818 5819 5815 5807 5808 5810 5812 5813 5813 5813 5811 5808 5805 5798 5793 5792 5790 5789 5788 5787 5786 5785 5783 5782 5781 5780 5780 5779 5778 5778 5777 5776 5775 5774 5773 5773 5772 5771 5770
5824 5817 5809 5805 5808 5816 5822 5824 5824 5817 5814 5817 5815 5804 5801 5811 5816 5815 5814 5813 5811 5808 5806 5800 5793 5792 5790 5788 5787 5786 5785 5784 5782 5781 5780 5780 5779 5778 5778 5777 5777 5776 5775 5775 5774 5773 5772 5772 5771
5822 5820 5807 5803 5809 5819 5825 5829 5826 5819 5817 5817 5814 5807 5802 5812 5813 5814 5815 5813 5812 5809 5806 5799 5793 5791 5789 5788 5787 5786 5784 5783 5782 5781 5780 5779 5779 5778 5778 5777 5777 5776 5776 5775 5775 5774 5773 5772 5772
5819 5816 5810 5813 5813 5817 5824 5833 5827 5821 5816 5818 5820 5808 5804 5810 5813 5814 5814 5813 5811 5809 5805 5802 5797 5793 5789 5788 5787 5785 5784 5782 5781 5780 5780 5779 5779 5778 5778 5777 5777 5777 5776 5775 5775 5775 5774 5773 5772
5831 5823 5818 5819 5816 5817 5830 5833 5831 5826 5820 5828 5826 5811 5805 5811 5815 5815 5813 5811 5809 5807 5805 5803 5800 5797 5794 5791 5787 5785 5784 5782 5781 5780 5780 5779 5779 5779 5779 5778 5777 5777 5776 5776 5776 5775 5775 5774 5773
5835 5822 5816 5820 5820 5823 5834 5831 5833 5837 5829 5826 5827 5823 5822 5820 5817 5812 5809 5807 5804 5804 5804 5804 5802 5799 5797 5795 5790 5788 5785 5783 5782 5782 5781 5781 5783 5783 5781 5780 5778 5777 5777 5776 5776 5776 5775 5775 5775
5832 5820 5822 5832 5836 5834 5835 5834 5833 5830 5823 5821 5821 5823 5823 5819 5815 5809 5806 5804 5802 5802 5804 5804 5802 5800 5798 5796 5792 5790 5789 5786 5785 5784 5783 5784 5783 5783 5783 5780 5779 5778 5778 5777 5777 5777 5776 5777 5779
5833 5824 5833 5839 5844 5842 5837 5836 5840 5830 5821 5824 5821 5819 5819 5816 5813 5810 5808 5807 5804 5803 5804 5804 5802 5799 5799 5796 5794 5791 5790 5788 5787 5785 5784 5784 5784 5784 5784 5784 5782 5781 5780 5780 5779 5780 5781 5781 5781
5833 5835 5838 5841 5846 5843 5839 5839 5836 5833 5831 5838 5835 5828 5821 5816 5814 5812 5809 5808 5806 5804 5804 5804 5802 5799 5797 5796 5795 5792 5791 5790 5789 5786 5785 5785 5785 5784 5784 5783 5784 5783 5783 5781 5782 5781 5781 5780 5780
5833 5835 5841 5845 5846 5846 5843 5838 5836 5834 5840 5841 5836 5829 5823 5820 5818 5816 5814 5811 5808 5804 5803 5803 5801 5799 5797 5794 5793 5794 5792 5791 5789 5787 5785 5784 5785 5784 5784 5783 5782 5783 5783 5782 5781 5782 5781 5780 5780
5838 5839 5842 5846 5846 5846 5839 5838 5837 5835 5842 5836 5831 5827 5825 5822 5820 5816 5812 5809 5808 5806 5804 5803 5800 5798 5795 5794 5792 5792 5792 5789 5789 5787 5786 5784 5785 5784 5783 5782 5781 5782 5782 5782 5780 5781 5780 5780 5780
5841 5835 5839 5845 5846 5846 5842 5831 5834 5840 5841 5833 5829 5827 5825 5823 5821 5816 5814 5811 5810 5808 5806 5803 5801 5799 5795 5793 5793 5793 5792 5791 5789 5787 5785 5783 5784 5783 5783 5783 5782 5781 5781 5779 5779 5779 5779 5779 5779
5838 5832 5828 5840 5845 5846 5836 5822 5837 5845 5839 5831 5828 5826 5823 5822 5822 5820 5817 5814 5812 5810 5806 5804 5803 5799 5795 5793 5790 5792 5791 5790 5789 5787 5785 5783 5782 5781 5781 5782 5781 5780 5780 5779 5778 5777 5777 5776 5776
5829 5824 5825 5834 5845 5843 5836 5828 5839 5846 5840 5832 5828 5826 5824 5821 5821 5821 5820 5817 5814 5810 5806 5803 5801 5798 5796 5793 5791 5790 5788 5787 5787 5786 5785 5782 5781 5781 5780 5780 5779 5778 5779 5778 5778 5777 5775 5773 5773
5820 5824 5825 5828 5841 5839 5833 5833 5840 5844 5840 5835 5831 5828 5825 5822 5820 5822 5821 5819 5815 5810 5806 5802 5799 5796 5794 5792 5790 5788 5787 5787 5786 5785 5783 5781 5781 5780 5779 5779 5777 5777 5776 5775 5774 5772 5771 5771 5771
5827 5823 5822 5831 5843 5835 5831 5832 5839 5842 5838 5835 5832 5829 5826 5824 5826 5824 5821 5818 5813 5809 5804 5800 5797 5794 5791 5789 5788 5785 5785 5785 5785 5784 5782 5780 5780 5779 5777 5778 5775 5774 5773 5771 5772 5770 5769 5769 5769
5823 5818 5822 5830 5838 5833 5830 5831 5841 5842 5837 5836 5833 5830 5828 5826 5824 5821 5819 5816 5811 5807 5804 5800 5797 5795 5792 5790 5788 5786 5785 5785 5785 5784 5781 5780 5778 5777 5777 5774 5774 5773 5770 5769 5767 5766 5766 5766 5766
5821 5820 5821 5821 5829 5833 5827 5825 5833 5839 5840 5838 5836 5834 5832 5828 5824 5821 5818 5815 5812 5807 5804 5802 5798 5795 5792 5790 5788 5786 5783 5782 5782 5779 5779 5778 5777 5776 5774 5773 5772 5770 5770 5768 5765 5764 5761 5760 5761
5814 5830 5826 5822 5815 5819 5822 5810 5827 5835 5832 5833 5833 5833 5832 5831 5828 5824 5820 5815 5812 5809 5807 5802 5798 5794 5792 5789 5786 5783 5779 5777 5777 5778 5778 5777 5775 5774 5772 5771 5769 5767 5767 5765 5764 5764 5761 5757 5756
5823 5831 5826 5822 5818 5816 5821 5812 5825 5833 5825 5831 5834 5834 5834 5833 5830 5826 5822 5818 5814 5811 5807 5802 5796 5792 5789 5787 5784 5780 5778 5778 5778 5777 5775 5774 5774 5772 5771 5769 5767 5765 5764 5762 5760 5759 5757 5756 5753
5829 5823 5820 5821 5818 5800 5815 5810 5813 5832 5830 5833 5836 5836 5834 5832 5829 5826 5823 5819 5814 5811 5807 5802 5796 5790 5788 5785 5783 5779 5776 5775 5773 5771 5770 5771 5772 5771 5769 5767 5765 5763 5761 5759 5757 5755 5754 5753 5750
5820 5808 5794 5791 5793 5799 5820 5810 5815 5834 5839 5837 5834 5835 5835 5832 5828 5823 5819 5815 5811 5808 5805 5801 5795 5789 5787 5784 5781 5779 5776 5773 5770 5769 5768 5767 5768 5768 5765 5764 5761 5760 5758 5756 5754 5752 5751 5749 5746
5816 5811 5789 5778 5787 5805 5813 5806 5821 5837 5839 5839 5837 5836 5833 5829 5826 5822 5819 5815 5811 5807 5803 5799 5794 5789 5786 5783 5781 5779 5777 5774 5772 5769 5768 5766 5766 5766 5763 5760 5758 5756 5754 5753 5750 5749 5747 5745 5742
5810 5810 5819 5803 5800 5794 5805 5812 5823 5832 5829 5830 5830 5829 5827 5825 5823 5819 5817 5814 5810 5806 5802 5799 5793 5788 5785 5782 5780 5777 5775 5771 5770 5768 5766 5765 5762 5762 5759 5757 5754 5752 5750 5748 5746 5744 5740 5739 5738
5820 5818 5809 5795 5775 5775 5793 5803 5809 5816 5818 5823 5822 5822 5822 5821 5820 5817 5814 5811 5809 5806 5802 5797 5792 5787 5783 5780 5778 5776 5772 5768 5767 5765 5761 5760 5759 5757 5755 5753 5751 5748 5746 5744 5741 5740 5736 5733 5731
5804 5803 5800 5798 5793 5780 5779 5797 5824 5819 5820 5819 5821 5821 5821 5819 5816 5814 5811 5809 5807 5803 5799 5794 5790 5785 5781 5778 5775 5772 5769 5767 5764 5761 5759 5757 5755 5753 5750 5748 5746 5744 5741 5739 5736 5735 5731 5728 5726
5808 5803 5798 5783 5779 5787 5785 5793 5825 5823 5823 5820 5818 5818 5817 5814 5813 5811 5807 5804 5800 5797 5793 5790 5786 5783 5779 5776 5773 5769 5767 5764 5761 5758 5755 5752 5750 5749 5747 5744 5741 5740 5737 5735 5731 5728 5726 5723 5720